SCOUT A DEB

Satellite information

Favourite Embed

Satellite Type and Status

DEBRISIN ORBIT

Key statistics

Satellite SCOUT A DEB at a glance.

Uptime

21597

Days in orbit

Revolutions

≈ 14.5

Per day

Orbit

SSO

Sun Synchronous Orbit

Inclination

90.2

Latest

Satellite identification and parameters

Extended collection of information and parameters for SCOUT A DEB.

Object identification

Identified? True

Debris? True

Object name: SCOUT A DEB

International designator: 1966-041F

Object number (NORAD): 4555

Object ID (CCSDS): 4555

Country: UNITED STATES OF AMERICA (US)

Current information (Y/N): Y

RCS size: SMALL

Orbital parameters

Period: 99.295 minutes

Inclination: 90.2052 deg

SMA: 7103.062 km

Apoapsis: 753.268 km

Periapsis: 696.586 km

RAAN: 66.0782 deg

Eccentricy: 0.00399

Argument of periapsis: 219.0897 deg

Mean anomaly: 140.7426 deg

Mean motion: 14.50221502 rev/day

Mean motion (dot): 0.00001633 rev/day2

B* drag term: 0.0004129 1/REarth

Two-line elements (TLE)

Creation date: July 4, 2025, 6:46 a.m.

Reference frame: TEME

Reference center: EARTH

Epoch: July 3, 2025, 10:53 p.m. UTC

TLE line 0: 0 SCOUT A DEB

TLE line 1: 1 4555U 66041F 25184.95406930 .00001633 00000-0 41290-3 0 9994

TLE line 2: 2 4555 90.2052 66.0782 0039900 219.0897 140.7426 14.50221502374005

Live tracking on map

Real-time ground track for satellite SCOUT A DEB.

In-orbit conjunctions

A list of the most updated potential collisions computed for object SCOUT A DEB.

Target Orbit TCA Probability of collision Miss distance Type
DELTA 1 DEB SSO 2025-05-21 01:51:12 0.0002506455 92.0 (m) DEBRIS
CZ-6A DEB LEO 2024-11-01 19:29:39 0.0001012283 152.0 (m) DEBRIS

Associated space launch

The Transit-O series of satellites that closely followed the design of Transit 5C-1 were also called “Oscars” (Oscar is the phonetic alphabet for “O”, i. e., operational). They were also called NNS (Navy Navigation Satellite) or shortened NavSat.

SCOUT A DEB was lifted into orbit during the mission ‘Scout A | Transit-O 9’, on board a Scout A space rocket.

The launch took place on May 19, 1966, 2:27 a.m. from Space Launch Complex 5.

For more information about the launch, click the button.

Launch to space Scout A | Transit-O 9
Scout A | Transit-O 9

Agency: N/A

Status: Launch Successful

Launch date: May 19, 1966, 2:27 a.m. UTC

Rocket: Scout A

Launch pad: Space Launch Complex 5

Location: Vandenberg SFB, CA, USA

...

Latest news about this satellite

There are no fresh news available about this satellite. Check back as we update our databases every day.


Newsletter sign-up

Weekly statistics, charts and insights to help you stay on top of the space industry.